Location: Carrières
(48.9495°N, 2.0407°E)
Time: 07:18:30
(UTC+00:00)

SKYMED 2 - Pass Details

Date: 28 January 2023
Orbit: 621 x 623 km, 97.9° (Epoch: 22 March)

Event Time Altitude Azimuth Distance (km) Brightness Sun altitude
Rises 17:41:07 0° 18° (NNE) 2,920 6.7 -9.8°
Reaches altitude 10° 17:43:23 10° 24° (NNE) 2,008 5.8 -10.2°
Maximum altitude 17:47:38 49° 99° (E) 809 3.8 -10.8°
Drops below altitude 10° 17:51:50 10° 175° (S) 1,991 6.3 -11.5°
Sets 17:54:04 0° 181° (S) 2,892 7.2 -11.9°
